Regional Weather Roundup
Issued by NWS Huntsville, AL

Home | Current Version | Previous Version | Text Only | Print | Product List | Glossary On
Versions: 1 2 3 4 5 6 7 8 9 10 11 12 13 14 15 16 17 18 19 20 21 22 23 24 25 26 27 28 29 30 31 32 33 34 35 36 37 38 39 40 41 42 43 44 45 46 47 48 49 50
000
ASUS44 KHUN 070310
RWRHUN

WEATHER ROUNDUP FOR THE TENNESSEE VALLEY
NATIONAL WEATHER SERVICE HUNTSVILLE AL
1000 PM CDT WED MAY 06 2015

ALZ001>004-070400-
NORTHWEST ALABAMA

CITY           SKY/WX    TMP DP  RH WIND       PRES   REMARKS
COURTLAND HCN    N/A     63 N/A N/A CALM        N/A
BANKHEAD NF      N/A     61  54  77 CALM        N/A
RUSSELLVILLE     N/A     59 N/A N/A MISG        N/A
SHOALS AIRPORT CLEAR     62  54  74 CALM      30.11R
SHOALS TVA RES   N/A     63 N/A N/A MISG        N/A
$$

ALZ005>007-016-070400-
NORTH CENTRAL ALABAMA

CITY           SKY/WX    TMP DP  RH WIND       PRES   REMARKS
CULLMAN AG STN   N/A     59 N/A N/A CALM        N/A
DECATUR AP     CLEAR     64  55  72 CALM      30.12R
HUNTSVILLE AP  CLEAR     70  53  54 CALM      30.11S
HUN NWS/UAH      N/A     69  53  55 CALM        N/A
MERIDIANVILLE  CLEAR     61  52  72 CALM      30.12S
REDSTONE ARSN  CLEAR     65  54  69 NE1       30.11R
VINEMONT AP    FAIR      58  56  91 CALM      30.14S
$$

ALZ008>010-070400-
NORTHEAST ALABAMA

CITY           SKY/WX    TMP DP  RH WIND       PRES   REMARKS
ALBERTVILLE    CLEAR     63  61  94 CALM      30.12S
FORT PAYNE     CLEAR     59  52  77 CALM      30.13R
SCOTTSBORO HCN   N/A     61 N/A N/A MISG        N/A
VALLEY HEAD      N/A     59 N/A N/A MISG        N/A
$$

TNZ076-096-097-070400-
SOUTHEASTERN MIDDLE TENNESSEE

CITY           SKY/WX    TMP DP  RH WIND       PRES   REMARKS
TULLAHOMA      CLEAR     61  52  72 CALM      30.15R
WINCHESTER     CLEAR     63  54  72 CALM      30.14S
$$

...SURROUNDING SITES...

CITY           SKY/WX    TMP DP  RH WIND       PRES   REMARKS
ATLANTA        PTCLDY    72  52  49 CALM      30.14R
ANNISTON       CLEAR     63  58  83 CALM      30.12R
BIRMINGHAM     CLEAR     67  56  67 CALM      30.13R
CHATTANOOGA    PTCLDY    66  59  78 CALM      30.13R
DALTON         CLEAR     63  59  88 CALM      30.14R
GADSDEN        CLEAR    N/A N/A N/A CALM      30.10S
GOLDEN TRNGL   CLEAR     72  57  60 E8        30.06F
HALEYVILLE       N/A     60  57  89 MISG      30.14S
JACKSON TN     CLEAR     69  51  52 S3        30.07R
LEWISBURG      FAIR      60  54  80 CALM      30.11R
MEMPHIS        CLEAR     74  52  46 SE6       30.05R
NASHVILLE      PTCLDY    69  58  67 S5        30.11R
OXFORD MS      FAIR      66  54  63 SE6       30.07S
ROME           CLEAR     63  58  83 CALM      30.12R
SAVANNAH       CLEAR     61  32  33 CALM      30.10S
TUPELO         CLEAR     72  58  61 SE6       30.07S
TUSCALOOSA     CLEAR     67  60  78 CALM      30.09R
$$

...GULF COAST WEATHER...

CITY           SKY/WX    TMP DP  RH WIND       PRES   REMARKS
GULFPORT       CLEAR     74  68  81 SE9       30.04S
PASCAGOULA     CLEAR     65  63  93 CALM      30.06S
MOBILE         CLEAR     68  63  84 SE3       30.07F
GULF SHORES    CLEAR     64  64  99 CALM      30.07S
PENSACOLA      PTCLDY    67  65  93 CALM      30.06S
DESTIN         CLEAR     72  67  84 CALM      30.08R
PANAMA CITY    CLEAR     69  66  91 CALM      30.08R
APPALACHICOLA  PTCLDY    72  66  81 N5        30.07R
$$




USA.gov is the U.S. government's official web portal to all federal, state and local government web resources and services.